Weather reports worldwide

Advertisment
Vichy, France (7374): temperature & dewpoint: 25.09.2020 00:00:00 - 01.10.2020 00:00:00 (CEST)Vichy, France (7374): temperature 5cm: 25.09.2020 00:00:00 - 01.10.2020 00:00:00 (CEST)Vichy, France (7374): wind speed & gusts: 25.09.2020 00:00:00 - 01.10.2020 00:00:00 (CEST)Vichy, France (7374): wind direction: 25.09.2020 00:00:00 - 01.10.2020 00:00:00 (CEST)Vichy, France (7374): reduced air pressure: 25.09.2020 00:00:00 - 01.10.2020 00:00:00 (CEST)Vichy, France (7374): visibility: 25.09.2020 00:00:00 - 01.10.2020 00:00:00 (CEST)Vichy, France (7374): sunshine duration: 25.09.2020 00:00:00 - 01.10.2020 00:00:00 (CEST)Vichy, France (7374): precipitation: 25.09.2020 00:00:00 - 01.10.2020 00:00:00 (CEST)
Date & Time tt [°C] td [°C] tt 5cm [°C] ff [km/h] ff [kn] fx [km/h] fx [kn] dd ppp [hPa] vv [km] sd [min] rr [mm]
01.10.2020 00:00:00 10,5 9,9 7,2 8 4 15 8 S 1011,7 20 0 0,0
30.09.2020 23:00:00 10,5 9,6 7,1 3 2 13 7 SSW 1012,2 19 0 0,0
30.09.2020 22:00:00 11,7 10,4 8,5 6 3 10 6 SSW 1012,2 20 0 0,0
30.09.2020 21:00:00 12,7 10,9 10,3 5 3 8 4 S 1012,3 20 0 0,0
30.09.2020 20:00:00 14,9 11,5 12,5 3 2 7 4 S 1011,9 20 0 0,0
30.09.2020 19:00:00 17,3 11,3 15,7 2 1 11 6 SW 1011,7 20 0 0,0
30.09.2020 18:00:00 21,4 10,5 25,9 5 3 15 8 S 1011,5 20 60 0,0
30.09.2020 17:00:00 21,4 10,2 26,1 4 2 16 9 WNW 1011,7 20 60 0,0
30.09.2020 16:00:00 20,2 9,7 25,8 5 3 16 9 ESE 1012,2 20 55 0,0
30.09.2020 15:00:00 19,3 9,5 26,1 7 4 14 8 E 1013,0 20 60 0,0
30.09.2020 14:00:00 18,6 8,3 25,3 8 4 17 9 SSE 1014,4 20 60 0,0
30.09.2020 13:00:00 16,5 9,7 23,2 7 4 16 8 SSE 1015,3 20 60 0,0
30.09.2020 12:00:00 15,4 10,6 21,1 6 4 16 9 SSE 1016,2 20 60 0,0
30.09.2020 11:00:00 12,3 10,9 13,5 4 2 14 8 SE 1017,0 20 60 0,0
30.09.2020 10:00:00 8,2 8,2 8,4 8 4 14 8 S 1017,6 13 38 0,0
30.09.2020 09:00:00 6,5 6,5 4,8 9 5 14 7 S 1018,2 1,2 37 0,0
30.09.2020 08:00:00 5,1 5,0 3,0 5 3 10 5 SSW 1018,4 0,9 0 0,0
30.09.2020 07:00:00 5,1 5,0 2,6 6 3 9 5 SSE 1018,2 0,5 0 0,0
30.09.2020 06:00:00 5,2 5,1 2,0 4 2 7 4 SW 1018,4 2,4 0 0,0
30.09.2020 05:00:00 4,7 4,4 2,0 2 1 5 3 SW 1018,9 6 0 0,0
30.09.2020 04:00:00 5,6 5,3 2,7 3 1 10 5 SW 1019,1 4,6 0 0,0
30.09.2020 03:00:00 6,0 5,7 3,4 5 3 9 5 SSW 1019,3 8 0 0,0
30.09.2020 02:00:00 6,7 6,4 3,9 4 2 8 4 SSW 1019,7 8 0 0,0
30.09.2020 01:00:00 8,3 8,0 4,9 0 0 9 5 N 1020,0 10 0 0,0
30.09.2020 00:00:00 8,0 7,7 5,0 2 1 3 2 SSE 1020,3 13 0 0,0
29.09.2020 23:00:00 8,0 7,4 4,9 2 1 6 3 W 1020,4 8 0 0,0
29.09.2020 22:00:00 9,2 8,6 6,1 2 1 3 2 SW 1020,1 9 0 0,0
29.09.2020 21:00:00 10,3 9,2 7,5 0 0 4 2 N 1019,9 20 0 0,0
29.09.2020 20:00:00 11,9 9,8 9,3 3 2 11 6 WNW 1019,8 20 0 0,0
29.09.2020 19:00:00 16,0 9,4 15,0 4 2 9 5 ESE 1019,2 20 45 0,0
29.09.2020 18:00:00 17,8 8,6 21,3 3 1 10 6 ESE 1019,2 20 46 0,0
29.09.2020 17:00:00 17,3 9,2 21,0 5 3 11 6 WSW 1019,5 20 19 0,0
29.09.2020 16:00:00 17,4 8,5 21,2 3 2 11 6 E 1019,9 20 14 0,0
29.09.2020 15:00:00 16,6 9,0 20,7 5 3 15 8 SSE 1020,2 20 5 0,0
29.09.2020 14:00:00 15,6 8,8 19,0 8 4 16 9 SSE 1020,9 20 2 0,0
29.09.2020 13:00:00 14,8 9,4 18,3 12 7 20 11 S 1021,3 20 27 0,0
29.09.2020 12:00:00 14,5 9,3 18,1 6 3 20 11 SSW 1021,5 20 43 0,0
29.09.2020 11:00:00 13,2 10,2 14,9 9 5 20 11 SSE 1021,9 20 54 0,0
29.09.2020 10:00:00 10,5 9,3 10,7 13 7 21 11 SSE 1021,9 20 60 0,0
29.09.2020 09:00:00 8,5 8,4 5,5 12 6 18 10 S 1021,7 20 56 0,0
29.09.2020 08:00:00 6,6 6,5 2,8 7 4 17 9 S 1021,5 12 0 0,0
29.09.2020 07:00:00 5,1 4,8 2,5 6 4 10 5 SSW 1021,4 10 0 0,0
29.09.2020 06:00:00 5,4 5,0 3,5 5 3 15 8 SSW 1021,1 11 0 0,0
29.09.2020 05:00:00 6,7 6,4 5,2 8 4 16 9 S 1020,9 14 0 0,0
29.09.2020 04:00:00 6,8 6,4 5,4 8 5 18 10 S 1021,1 15 0 0,0
29.09.2020 03:00:00 7,8 7,4 6,2 10 6 18 10 S 1021,1 19 0 0,0
29.09.2020 02:00:00 8,0 7,6 6,5 10 6 18 10 S 1020,6 16 0 0,0
29.09.2020 01:00:00 8,4 8,0 7,2 9 5 18 10 S 1020,5 19 0 0,0
29.09.2020 00:00:00 8,7 8,2 7,2 10 5 17 9 S 1020,4 16 0 0,0
28.09.2020 23:00:00 8,9 8,4 7,3 7 4 14 8 S 1020,1 14 0 0,0
28.09.2020 22:00:00 9,5 8,9 8,4 5 3 14 8 S 1019,6 19 0 0,0
28.09.2020 21:00:00 10,3 9,7 10,1 5 3 10 5 S 1018,9 18 0 0,0
28.09.2020 20:00:00 10,2 9,7 10,0 5 3 13 7 SSW 1018,4 19 0 0,0
28.09.2020 19:00:00 10,3 9,8 10,3 6 4 10 6 S 1017,7 16 0 0,2
28.09.2020 18:00:00 10,2 9,3 10,3 5 3 11 6 ESE 1017,2 5 0 0,8
28.09.2020 17:00:00 10,6 9,5 10,4 5 3 28 15 WSW 1016,9 4,8 0 1,2
28.09.2020 16:00:00 10,8 9,7 10,7 8 4 23 13 W 1016,4 10 0 0,6
28.09.2020 15:00:00 10,7 9,8 10,6 8 4 21 12 W 1015,9 4,8 0 1,0
28.09.2020 14:00:00 10,8 9,4 10,6 9 5 29 16 WNW 1015,6 5 0 0,2
28.09.2020 13:00:00 10,9 9,8 10,8 10 5 29 16 W 1015,0 4,5 0 0,2
28.09.2020 12:00:00 10,6 9,7 10,5 12 6 29 15 W 1014,5 5 0 0,8
28.09.2020 11:00:00 10,4 9,6 10,2 6 3 22 12 W 1013,9 4,5 0 0,8
28.09.2020 10:00:00 10,2 9,4 9,9 3 2 22 12 WSW 1013,3 3,0 0 1,4
28.09.2020 09:00:00 9,9 9,3 9,6 4 2 18 10 W 1012,8 2,0 0 1,6
28.09.2020 08:00:00 9,7 9,1 9,5 4 2 19 10 SW 1012,0 7 0 2,5
28.09.2020 07:00:00 9,7 9,1 9,5 3 2 19 10 W 1011,6 3,4 0 2,0
28.09.2020 06:00:00 9,8 9,0 9,5 7 4 24 13 W 1011,3 6 0 2,4
28.09.2020 05:00:00 10,2 9,1 9,7 10 5 33 18 WNW 1011,3 15 0 0,8
28.09.2020 04:00:00 10,3 9,4 10,0 12 6 34 18 WNW 1011,2 17 0 0,0
28.09.2020 03:00:00 10,2 9,4 9,8 13 7 34 18 WNW 1011,2 9 0 0,2
28.09.2020 02:00:00 10,1 9,3 9,7 9 5 39 21 WNW 1011,1 3,8 0 0,4
28.09.2020 01:00:00 10,0 9,1 9,7 15 8 36 19 WNW 1011,0 11 0 0,2
28.09.2020 00:00:00 10,0 8,9 9,4 10 6 35 19 WNW 1010,7 18 0 0,0
27.09.2020 23:00:00 9,8 8,7 9,4 11 6 34 19 WNW 1010,5 15 0 0,0
27.09.2020 22:00:00 9,7 8,5 9,1 12 6 32 17 W 1010,2 20 0 0,0
27.09.2020 21:00:00 9,5 8,3 9,0 12 6 30 16 W 1009,6 20 0 0,0
27.09.2020 20:00:00 9,4 8,0 8,7 8 4 26 14 WSW 1009,4 20 0 0,0
27.09.2020 19:00:00 9,2 8,0 8,6 9 5 27 15 SW 1009,0 20 0 1,0
27.09.2020 18:00:00 8,7 8,1 8,7 7 4 17 9 S 1008,8 6 0 3,6
27.09.2020 17:00:00 8,8 7,9 8,7 8 5 17 9 SSW 1008,7 7 0 1,6
27.09.2020 16:00:00 8,7 7,8 8,4 9 5 20 11 S 1008,5 10 0 4,1
27.09.2020 15:00:00 8,5 7,3 8,0 8 4 19 10 SSW 1008,9 10 0 3,2
27.09.2020 14:00:00 8,2 6,8 8,0 7 4 26 14 SW 1009,2 10 0 4,8
27.09.2020 13:00:00 8,9 6,9 8,4 8 5 27 14 W 1008,8 11 0 1,2
27.09.2020 12:00:00 9,0 7,1 8,1 10 5 26 14 WSW 1008,9 20 0 0,6
27.09.2020 11:00:00 8,3 6,8 7,8 8 4 28 15 W 1009,5 15 0 1,2
27.09.2020 10:00:00 8,1 6,6 7,4 5 3 23 12 WSW 1009,5 20 0 0,7
27.09.2020 09:00:00 7,8 6,4 7,3 6 4 22 12 WSW 1009,6 19 0 1,2
27.09.2020 08:00:00 7,7 6,5 7,1 5 3 25 13 W 1009,5 16 0 1,8
27.09.2020 07:00:00 7,5 6,3 6,5 6 3 18 10 SW 1009,4 11 0 1,2
27.09.2020 06:00:00 6,5 5,9 6,1 9 5 19 10 S 1009,7 15 0 1,0
27.09.2020 05:00:00 6,0 5,4 5,5 13 7 21 12 S 1009,8 7 0 0,6
27.09.2020 04:00:00 5,7 4,7 5,4 16 8 22 12 S 1010,5 17 0 0,0
27.09.2020 03:00:00 5,4 4,7 3,1 10 6 19 10 S 1010,9 20 0 0,0
27.09.2020 02:00:00 4,1 3,7 0,7 9 5 16 8 S 1011,5 20 0 0,0
27.09.2020 01:00:00 3,0 2,4 0,3 5 3 8 4 SSW 1011,6 20 0 0,0
27.09.2020 00:00:00 3,5 2,8 0,9 3 2 13 7 SSW 1011,1 20 0 0,0
26.09.2020 23:00:00 4,7 4,1 1,8 6 4 16 9 SSW 1010,6 20 0 0,0
26.09.2020 22:00:00 4,2 3,5 1,7 4 2 9 5 SSW 1010,2 20 0 0,0
26.09.2020 21:00:00 5,4 4,4 2,8 0 0 6 4 N 1009,9 20 0 0,0
26.09.2020 20:00:00 6,9 4,7 3,9 3 1 5 3 S 1009,6 20 0 0,0
26.09.2020 19:00:00 9,7 4,7 8,6 3 1 12 7 SSE 1009,3 20 9 0,0
26.09.2020 18:00:00 11,4 6,1 11,1 3 2 16 8 NNW 1009,2 20 24 0,0
26.09.2020 17:00:00 9,8 6,3 10,2 13 7 32 17 N 1010,1 20 9 0,0
26.09.2020 16:00:00 8,7 6,8 7,6 10 6 52 28 NNE 1010,3 20 14 1,0
26.09.2020 15:00:00 13,3 6,6 14,8 12 7 29 16 W 1009,8 20 53 0,0
26.09.2020 14:00:00 10,5 6,4 8,9 13 7 42 23 NNW 1011,3 20 18 0,2
26.09.2020 13:00:00 11,0 6,9 9,8 12 6 31 17 WNW 1011,6 20 14 0,2
26.09.2020 12:00:00 10,1 7,3 9,0 9 5 35 19 W 1012,5 20 7 0,2
26.09.2020 11:00:00 8,9 6,5 8,6 7 4 33 18 W 1013,0 15 0 0,2
26.09.2020 10:00:00 9,1 6,2 8,9 0 0 13 7 N 1013,1 20 0 0,0
26.09.2020 09:00:00 8,1 5,7 5,5 8 4 13 7 SSE 1013,4 20 13 0,0
26.09.2020 08:00:00 6,8 4,8 4,9 9 5 14 8 S 1013,6 20 0 0,0
26.09.2020 07:00:00 7,9 4,7 6,4 5 3 27 15 SW 1013,4 20 0 0,0
26.09.2020 06:00:00 7,7 4,6 6,5 5 3 28 15 WSW 1013,5 20 0 0,0
26.09.2020 05:00:00 8,4 5,0 7,1 9 5 28 15 W 1013,2 20 0 0,0
26.09.2020 04:00:00 8,7 5,4 7,6 9 5 28 15 WNW 1013,5 20 0 0,0
26.09.2020 03:00:00 8,8 5,5 7,5 9 5 31 17 WNW 1013,7 20 0 0,0
26.09.2020 02:00:00 9,1 5,6 8,0 8 4 30 16 WNW 1013,6 20 0 0,0
26.09.2020 01:00:00 9,6 5,6 8,1 10 6 30 16 WNW 1013,5 20 0 0,0
26.09.2020 00:00:00 9,0 5,7 6,4 7 4 24 13 W 1013,3 20 0 0,0
25.09.2020 23:00:00 7,8 6,9 5,5 3 2 11 6 WSW 1013,4 20 0 0,0
25.09.2020 22:00:00 7,4 7,0 4,5 6 3 11 6 S 1012,8 20 0 0,2
25.09.2020 21:00:00 7,6 6,7 5,2 8 4 11 6 S 1012,0 20 0 0,0
25.09.2020 20:00:00 8,0 6,3 6,4 3 1 13 7 S 1011,3 20 2 0,0
25.09.2020 19:00:00 8,7 7,0 7,5 5 3 65 35 WNW 1010,1 20 0 2,9
25.09.2020 18:00:00 11,6 8,1 9,4 5 3 46 25 NW 1008,3 20 8 1,0
25.09.2020 17:00:00 12,2 7,5 9,3 11 6 39 21 W 1007,9 20 22 0,2
25.09.2020 16:00:00 10,4 6,5 10,1 13 7 44 24 W 1007,8 19 1 0,2
25.09.2020 15:00:00 13,5 7,9 9,5 11 6 37 20 WNW 1006,3 20 22 1,6
25.09.2020 14:00:00 13,4 5,3 14,3 14 8 44 24 W 1006,7 17 20 0,0
25.09.2020 13:00:00 13,1 6,7 10,8 13 7 46 25 W 1006,5 20 12 0,0
25.09.2020 12:00:00 12,8 5,0 13,0 15 8 41 22 WSW 1006,3 20 19 0,0
25.09.2020 11:00:00 12,7 5,6 12,7 11 6 38 21 WSW 1006,4 20 18 0,0
25.09.2020 10:00:00 12,2 5,1 12,4 14 8 35 19 SW 1006,2 20 47 0,0
25.09.2020 09:00:00 10,9 5,4 9,0 11 6 24 13 S 1006,1 20 12 0,0
25.09.2020 08:00:00 9,4 5,0 8,1 12 6 27 15 S 1006,0 20 0 0,0
25.09.2020 07:00:00 10,0 5,0 7,5 11 6 30 16 SSW 1005,6 20 0 0,0
25.09.2020 06:00:00 10,4 5,0 8,5 10 5 32 17 S 1006,6 20 0 0,0
25.09.2020 05:00:00 11,0 5,5 8,6 6 4 30 16 SW 1006,8 20 0 0,0
25.09.2020 04:00:00 11,0 5,3 8,8 12 6 29 16 S 1007,3 20 0 0,0
25.09.2020 03:00:00 11,6 5,2 9,4 6 4 39 21 S 1006,1 20 0 0,0
25.09.2020 02:00:00 12,2 6,2 10,4 18 10 33 18 S 1006,3 20 0 0,0
25.09.2020 01:00:00 12,3 8,8 10,8 9 5 24 13 S 1007,2 20 0 0,0
25.09.2020 00:00:00 11,9 8,9 10,8 7 4 51 28 NW 1007,1 20 0 1,6

tt = temperature
td = dewpoint
tt 5cm = temperature 5cm
ff = wind speed
fx = gusts
dd = wind direction
ppp = reduced air pressure
vv = visibility
sd = sunshine duration
rr = precipitation

Next stations